Вернуться в каталог

FENGYUN 1C DEB

АктивенSSO
NORAD 31074·DEBRIS·🇨🇳 China

Запущен May 10, 1999 с Taiyuan Satellite Launch Center

Loading…

Ближайшие Пролёты (ближайшие 24 часа)

TLE

СвежийSource: Space-Track

Эпоха: Sep 14, 2026, 18:19 UTC

1 31074U 99025BFU 26257.76355377  .00002283  00000-0  11368-2 0  9991
2 31074  98.9541 179.0219 0083016 200.2239 159.5640 14.16204961994846

Отслеживайте FENGYUN 1C DEB в реальном времени с AllMySat

Download on the App Store